LGL858 LPPT-ELLX

Flight info

Callsign LGL858
Flight time N/A
Altitude 38000
Route IXIDA DCT TOSDI N745 ZMR DCT NUBLO DCT RONSI/N0454F400 DCT DELOG DCT PEXOD DCT GODEM DCT ARDOD/N0450F360 UN873 OBATO/N0444F300 UM163 CTL/N0442F290 UM163 MMD
Aircraft B737/M-SDE2E3FGHIRWXY/LB1

Departure

Time 2026-05-06 13:28
Airport Lisbon Humberto Delgado Airport (LPPT)

Arrival

Time N/A
Airport Luxembourg-Findel International Airport (ELLX)
Time Latitude Longitude Altitude Speed Heading
2026-05-06 12:48 38.77255 -9.13150 336 ft 0 kts 77°
2026-05-06 13:12 38.77254 -9.13152 364 ft 2 kts 77°
2026-05-06 13:12 38.77251 -9.13173 331 ft 2 kts 78°
2026-05-06 13:12 38.77248 -9.13194 333 ft 2 kts 78°
2026-05-06 13:13 38.77244 -9.13214 334 ft 2 kts 50°
2026-05-06 13:13 38.77233 -9.13231 333 ft 2 kts 12°
2026-05-06 13:13 38.77217 -9.13230 335 ft 2 kts 340°
2026-05-06 13:13 38.77214 -9.13229 335 ft 0 kts 349°
2026-05-06 13:21 38.77223 -9.13231 333 ft 3 kts 349°
2026-05-06 13:22 38.77252 -9.13240 334 ft 6 kts 345°
2026-05-06 13:22 38.77296 -9.13254 337 ft 7 kts 346°
2026-05-06 13:22 38.77326 -9.13292 336 ft 6 kts 283°
2026-05-06 13:22 38.77320 -9.13349 339 ft 7 kts 257°
2026-05-06 13:23 38.77310 -9.13405 345 ft 6 kts 257°
2026-05-06 13:23 38.77300 -9.13461 346 ft 6 kts 258°
2026-05-06 13:23 38.77292 -9.13517 346 ft 6 kts 260°
2026-05-06 13:23 38.77276 -9.13615 353 ft 15 kts 258°
2026-05-06 13:24 38.77251 -9.13771 351 ft 20 kts 258°
2026-05-06 13:24 38.77234 -9.13837 360 ft 7 kts 231°
2026-05-06 13:24 38.77189 -9.13866 353 ft 9 kts 202°
2026-05-06 13:24 38.77121 -9.13904 355 ft 13 kts 204°
2026-05-06 13:25 38.77025 -9.13953 351 ft 17 kts 203°
2026-05-06 13:25 38.76902 -9.14020 350 ft 21 kts 203°
2026-05-06 13:25 38.76768 -9.14093 345 ft 20 kts 202°
2026-05-06 13:25 38.76645 -9.14157 340 ft 19 kts 202°
2026-05-06 13:26 38.76595 -9.14201 339 ft 8 kts 246°
2026-05-06 13:26 38.76604 -9.14270 336 ft 8 kts 295°
2026-05-06 13:26 38.76631 -9.14340 333 ft 9 kts 299°
2026-05-06 13:26 38.76684 -9.14367 336 ft 9 kts 12°
2026-05-06 13:27 38.76765 -9.14326 336 ft 30 kts 20°
2026-05-06 13:27 38.77185 -9.14104 357 ft 98 kts 22°
2026-05-06 13:27 38.78001 -9.13702 367 ft 152 kts 15°
2026-05-06 13:27 38.79103 -9.13163 622 ft 182 kts 20°
2026-05-06 13:28 38.80324 -9.12416 1114 ft 205 kts 23°
2026-05-06 13:28 38.81626 -9.11546 1712 ft 215 kts 26°
2026-05-06 13:28 38.82725 -9.10326 2799 ft 209 kts 47°
2026-05-06 13:28 38.83723 -9.08868 3488 ft 229 kts 44°
2026-05-06 13:29 38.84831 -9.07230 4056 ft 257 kts 49°
2026-05-06 13:29 38.85921 -9.05373 5053 ft 257 kts 51°
2026-05-06 13:29 38.86988 -9.03569 6135 ft 252 kts 51°
2026-05-06 13:29 38.88040 -9.01749 6810 ft 260 kts 52°
2026-05-06 13:30 38.89116 -8.99894 7703 ft 259 kts 51°
2026-05-06 13:30 38.90334 -8.98083 8245 ft 275 kts 44°
2026-05-06 13:30 38.91752 -8.96389 8902 ft 287 kts 41°
2026-05-06 13:30 38.93232 -8.94637 9982 ft 279 kts 43°
2026-05-06 13:31 38.94633 -8.92893 10882 ft 284 kts 43°
2026-05-06 13:31 38.96081 -8.91079 11367 ft 304 kts 43°
2026-05-06 13:31 38.97659 -8.89102 11549 ft 332 kts 43°
2026-05-06 13:31 38.99352 -8.86975 12098 ft 345 kts 43°
2026-05-06 13:32 39.01102 -8.84818 13120 ft 343 kts 42°
2026-05-06 13:32 39.02823 -8.82706 14085 ft 344 kts 43°
2026-05-06 13:32 39.04571 -8.80493 14440 ft 364 kts 43°
2026-05-06 13:32 39.06398 -8.78138 15037 ft 375 kts 44°
2026-05-06 13:33 39.08252 -8.75740 15705 ft 381 kts 44°
2026-05-06 13:33 39.10139 -8.73304 16314 ft 389 kts 43°
2026-05-06 13:33 39.12037 -8.70859 17114 ft 390 kts 44°
2026-05-06 13:33 39.13987 -8.68352 17831 ft 395 kts 43°
2026-05-06 13:34 39.15932 -8.65856 18442 ft 401 kts 43°
2026-05-06 13:34 39.17920 -8.63304 19079 ft 404 kts 43°
2026-05-06 13:34 39.19938 -8.60715 19732 ft 406 kts 44°
2026-05-06 13:34 39.21933 -8.58154 20335 ft 410 kts 44°
2026-05-06 13:35 39.23982 -8.55521 20926 ft 414 kts 44°
2026-05-06 13:35 39.26015 -8.52907 21492 ft 418 kts 44°
2026-05-06 13:35 39.28084 -8.50244 22046 ft 422 kts 44°
2026-05-06 13:35 39.30178 -8.47546 22607 ft 425 kts 44°
2026-05-06 13:36 39.32275 -8.44842 23140 ft 429 kts 44°
2026-05-06 13:36 39.34394 -8.42108 23642 ft 433 kts 44°
2026-05-06 13:36 39.36540 -8.39336 24079 ft 436 kts 44°
2026-05-06 13:36 39.38691 -8.36555 24523 ft 439 kts 44°
2026-05-06 13:37 39.40833 -8.33782 24944 ft 441 kts 44°
2026-05-06 13:37 39.43033 -8.30931 25366 ft 444 kts 44°
2026-05-06 13:37 39.45232 -8.28081 25776 ft 447 kts 44°
2026-05-06 13:37 39.47405 -8.25260 26174 ft 450 kts 44°
2026-05-06 13:38 39.49636 -8.22362 26561 ft 453 kts 44°
2026-05-06 13:38 39.51850 -8.19483 26953 ft 456 kts 44°
2026-05-06 13:38 39.54093 -8.16563 27419 ft 460 kts 44°
2026-05-06 13:38 39.56375 -8.13589 27930 ft 462 kts 44°
2026-05-06 13:39 39.58640 -8.10635 28402 ft 465 kts 44°
2026-05-06 13:39 39.60925 -8.07651 28836 ft 468 kts 44°
2026-05-06 13:39 39.63228 -8.04643 29252 ft 472 kts 44°
2026-05-06 13:39 39.65537 -8.01623 29662 ft 475 kts 44°
2026-05-06 13:40 39.67908 -7.98572 30062 ft 477 kts 43°
2026-05-06 13:40 39.70276 -7.95585 30393 ft 480 kts 43°
2026-05-06 13:40 39.72703 -7.92547 30710 ft 482 kts 43°
2026-05-06 13:40 39.75120 -7.89525 31102 ft 483 kts 43°
2026-05-06 13:41 39.77533 -7.86499 31566 ft 481 kts 43°
2026-05-06 13:41 39.79922 -7.83493 32034 ft 479 kts 43°
2026-05-06 13:41 39.82326 -7.80459 32435 ft 479 kts 42°
2026-05-06 13:41 39.84696 -7.77461 32784 ft 480 kts 42°
2026-05-06 13:42 39.87098 -7.74417 33164 ft 480 kts 42°
2026-05-06 13:42 39.89477 -7.71398 33583 ft 479 kts 42°
2026-05-06 13:42 39.91865 -7.68364 33970 ft 479 kts 42°
2026-05-06 13:42 39.94248 -7.65334 34238 ft 479 kts 42°
2026-05-06 13:43 39.96636 -7.62295 34525 ft 480 kts 42°
2026-05-06 13:43 39.99027 -7.59249 34826 ft 480 kts 42°
2026-05-06 13:43 40.01398 -7.56225 35120 ft 480 kts 42°
2026-05-06 13:43 40.03786 -7.53176 35413 ft 480 kts 42°
2026-05-06 13:44 40.06180 -7.50116 35687 ft 480 kts 42°
2026-05-06 13:44 40.08541 -7.47096 35942 ft 480 kts 42°
2026-05-06 13:44 40.10936 -7.44029 36226 ft 480 kts 42°
2026-05-06 13:44 40.13322 -7.40971 36491 ft 480 kts 42°
2026-05-06 13:45 40.15716 -7.37899 36752 ft 481 kts 42°
2026-05-06 13:45 40.20461 -7.31800 37309 ft 480 kts 42°
2026-05-06 13:45 40.22849 -7.28726 37578 ft 480 kts 42°
2026-05-06 13:46 40.25235 -7.25651 37823 ft 481 kts 42°
2026-05-06 13:46 40.27623 -7.22571 37960 ft 484 kts 42°
2026-05-06 13:46 40.31624 -7.17405 37952 ft 486 kts 42°
2026-05-06 13:47 40.37206 -7.10176 37936 ft 480 kts 42°
2026-05-06 13:47 40.41147 -7.05062 37960 ft 477 kts 42°
2026-05-06 13:48 40.45851 -6.98949 37954 ft 476 kts 42°
2026-05-06 13:48 40.50556 -6.92823 37956 ft 475 kts 42°
2026-05-06 13:49 40.55227 -6.86726 37954 ft 475 kts 43°
2026-05-06 13:49 40.59907 -6.80606 37941 ft 476 kts 43°
2026-05-06 13:50 40.64630 -6.74417 37949 ft 478 kts 43°
2026-05-06 13:50 40.69346 -6.68223 37954 ft 479 kts 43°
2026-05-06 13:51 40.74053 -6.62028 37956 ft 481 kts 43°
2026-05-06 13:51 40.78796 -6.55771 37950 ft 482 kts 43°
2026-05-06 13:52 40.83523 -6.49523 37948 ft 483 kts 43°
2026-05-06 13:52 40.88282 -6.43218 37951 ft 483 kts 43°
2026-05-06 13:53 40.93001 -6.36952 37959 ft 482 kts 43°
2026-05-06 13:53 40.97740 -6.30647 37956 ft 482 kts 43°
2026-05-06 13:54 41.02578 -6.24517 37955 ft 480 kts 40°
2026-05-06 13:54 41.07534 -6.18684 37961 ft 479 kts 39°
2026-05-06 13:55 41.12520 -6.12819 37961 ft 478 kts 39°
2026-05-06 13:55 41.17491 -6.06893 37963 ft 478 kts 40°
2026-05-06 13:56 41.22421 -6.00977 37967 ft 478 kts 40°
2026-05-06 13:56 41.27326 -5.95074 37963 ft 477 kts 40°
2026-05-06 13:57 41.32259 -5.89128 37971 ft 477 kts 40°
2026-05-06 13:57 41.37165 -5.83205 37967 ft 477 kts 40°
2026-05-06 13:58 41.42051 -5.77292 37973 ft 477 kts 40°
2026-05-06 13:58 41.46977 -5.71318 37973 ft 477 kts 40°
2026-05-06 13:59 41.51920 -5.65461 37965 ft 476 kts 34°
2026-05-06 13:59 41.57633 -5.61160 37985 ft 469 kts 20°
2026-05-06 14:00 41.63643 -5.57855 37977 ft 469 kts 19°
2026-05-06 14:00 41.69700 -5.54539 37974 ft 469 kts 19°
2026-05-06 14:01 41.75698 -5.51183 37973 ft 470 kts 19°
2026-05-06 14:01 41.81733 -5.47764 37975 ft 470 kts 20°
2026-05-06 14:02 41.87731 -5.44353 37974 ft 470 kts 20°
2026-05-06 14:02 41.93771 -5.40912 37971 ft 470 kts 20°
2026-05-06 14:03 41.99775 -5.37487 37977 ft 470 kts 20°
2026-05-06 14:03 42.05764 -5.34065 37983 ft 470 kts 20°
2026-05-06 14:04 42.11786 -5.30616 37980 ft 470 kts 20°
2026-05-06 14:04 42.17800 -5.27165 37976 ft 470 kts 20°
2026-05-06 14:05 42.23791 -5.23719 37980 ft 469 kts 20°
2026-05-06 14:05 42.29814 -5.20249 37966 ft 469 kts 20°
2026-05-06 14:06 42.35775 -5.16806 37972 ft 468 kts 20°
2026-05-06 14:06 42.41773 -5.13335 37968 ft 468 kts 20°
2026-05-06 14:07 42.47773 -5.09856 37961 ft 468 kts 20°
2026-05-06 14:07 42.53724 -5.06397 37965 ft 467 kts 20°
2026-05-06 14:08 42.59713 -5.02909 37974 ft 467 kts 20°
2026-05-06 14:08 42.65662 -4.99438 37971 ft 467 kts 20°
2026-05-06 14:09 42.71645 -4.95940 37969 ft 467 kts 20°
2026-05-06 14:09 42.77589 -4.92458 37966 ft 467 kts 20°
2026-05-06 14:10 42.83574 -4.88943 37976 ft 466 kts 20°
2026-05-06 14:10 42.89506 -4.85451 37992 ft 465 kts 20°
2026-05-06 14:11 42.95448 -4.81947 37993 ft 465 kts 20°
2026-05-06 14:11 43.01357 -4.78455 38000 ft 466 kts 20°
2026-05-06 14:12 43.07322 -4.74922 38002 ft 466 kts 20°
2026-05-06 14:12 43.13274 -4.71390 38018 ft 466 kts 20°
2026-05-06 14:13 43.19186 -4.67873 38027 ft 465 kts 20°
2026-05-06 14:13 43.25135 -4.64326 38039 ft 464 kts 20°
2026-05-06 14:14 43.31030 -4.60806 38024 ft 464 kts 21°
2026-05-06 14:14 43.36949 -4.57262 38035 ft 463 kts 21°
2026-05-06 14:15 43.42845 -4.53724 38030 ft 463 kts 21°
2026-05-06 14:15 43.48773 -4.50162 38040 ft 463 kts 21°
2026-05-06 14:16 43.54656 -4.46618 38040 ft 463 kts 21°
2026-05-06 14:16 43.60577 -4.43045 38036 ft 463 kts 21°
2026-05-06 14:17 43.66498 -4.39462 38029 ft 464 kts 21°
2026-05-06 14:17 43.72385 -4.35893 38034 ft 464 kts 21°
2026-05-06 14:18 43.78281 -4.32310 38026 ft 464 kts 21°
2026-05-06 14:18 43.84195 -4.28709 38029 ft 464 kts 21°
2026-05-06 14:19 43.90070 -4.25123 38030 ft 463 kts 21°
2026-05-06 14:19 43.95972 -4.21513 38027 ft 463 kts 21°
2026-05-06 14:20 44.01885 -4.17888 38029 ft 463 kts 21°
2026-05-06 14:20 44.07757 -4.14281 38032 ft 463 kts 21°
2026-05-06 14:21 44.13663 -4.10645 38031 ft 463 kts 21°
2026-05-06 14:21 44.19530 -4.07025 38030 ft 462 kts 21°
2026-05-06 14:22 44.25424 -4.03379 38028 ft 462 kts 21°
2026-05-06 14:22 44.31285 -3.99747 38024 ft 462 kts 22°
2026-05-06 14:23 44.36848 -3.95187 38033 ft 465 kts 32°
2026-05-06 14:23 44.42117 -3.90019 38023 ft 465 kts 33°
2026-05-06 14:24 44.47412 -3.84796 38019 ft 465 kts 33°
2026-05-06 14:24 44.52708 -3.79634 38022 ft 465 kts 32°
2026-05-06 14:25 44.58036 -3.74464 38019 ft 464 kts 32°
2026-05-06 14:25 44.63331 -3.69322 38016 ft 464 kts 32°
2026-05-06 14:26 44.68657 -3.64137 38014 ft 464 kts 33°
2026-05-06 14:26 44.73940 -3.58979 38016 ft 464 kts 33°
2026-05-06 14:27 44.79252 -3.53780 38014 ft 464 kts 33°
2026-05-06 14:27 44.84523 -3.48610 38009 ft 464 kts 33°
2026-05-06 14:28 44.89846 -3.43377 38006 ft 464 kts 33°
2026-05-06 14:28 44.95118 -3.38182 38004 ft 464 kts 33°
2026-05-06 14:29 45.00392 -3.32973 38006 ft 464 kts 33°
2026-05-06 14:29 45.05686 -3.27732 38006 ft 464 kts 33°
2026-05-06 14:30 45.10987 -3.22473 38001 ft 464 kts 33°
2026-05-06 14:30 45.16240 -3.17249 38001 ft 464 kts 33°
2026-05-06 14:31 45.21544 -3.11961 37995 ft 464 kts 33°
2026-05-06 14:31 45.26804 -3.06705 37995 ft 464 kts 33°
2026-05-06 14:32 45.32095 -3.01407 37996 ft 464 kts 33°
2026-05-06 14:32 45.37317 -2.96067 37997 ft 465 kts 34°
2026-05-06 14:33 45.42562 -2.90635 37999 ft 465 kts 34°
2026-05-06 14:33 45.47776 -2.85229 37995 ft 465 kts 34°
2026-05-06 14:34 45.53018 -2.79792 37996 ft 465 kts 34°
2026-05-06 14:34 45.58234 -2.74373 37994 ft 465 kts 34°
2026-05-06 14:35 45.63473 -2.68918 37991 ft 465 kts 34°
2026-05-06 14:35 45.68686 -2.63477 37989 ft 465 kts 34°
2026-05-06 14:36 45.73882 -2.58041 37987 ft 465 kts 34°
2026-05-06 14:36 45.79094 -2.52574 37984 ft 465 kts 34°
2026-05-06 14:37 45.84319 -2.47082 37982 ft 465 kts 34°
2026-05-06 14:37 45.89546 -2.41574 37980 ft 465 kts 34°
2026-05-06 14:38 45.94727 -2.36100 37982 ft 464 kts 34°
2026-05-06 14:38 45.99066 -2.31506 37979 ft 464 kts 34°
2026-05-06 14:39 46.05122 -2.25114 37969 ft 464 kts 32°
2026-05-06 14:39 46.09768 -2.21262 37981 ft 462 kts 26°
2026-05-06 14:40 46.15475 -2.16934 37978 ft 462 kts 26°
2026-05-06 14:40 46.21152 -2.12615 37968 ft 462 kts 26°
2026-05-06 14:41 46.26806 -2.08246 37968 ft 462 kts 26°
2026-05-06 14:41 46.32446 -2.03849 37966 ft 462 kts 27°
2026-05-06 14:42 46.38127 -1.99402 37976 ft 462 kts 27°
2026-05-06 14:42 46.43766 -1.94981 37964 ft 462 kts 27°
2026-05-06 14:43 46.49402 -1.90552 37967 ft 462 kts 27°
2026-05-06 14:43 46.55072 -1.86086 37974 ft 463 kts 27°
2026-05-06 14:44 46.60708 -1.81638 37963 ft 463 kts 27°
2026-05-06 14:45 46.69214 -1.74903 37952 ft 463 kts 27°
2026-05-06 14:45 46.74853 -1.70424 37969 ft 462 kts 27°
2026-05-06 14:46 46.80528 -1.65906 37962 ft 462 kts 27°
2026-05-06 14:46 46.86156 -1.61415 37966 ft 462 kts 27°
2026-05-06 14:47 46.91758 -1.56933 37961 ft 462 kts 27°
2026-05-06 14:47 46.97403 -1.52407 37964 ft 461 kts 27°
2026-05-06 14:48 47.03008 -1.47901 37963 ft 461 kts 27°
2026-05-06 14:48 47.08648 -1.43356 37965 ft 461 kts 27°
2026-05-06 14:49 47.14258 -1.38825 37967 ft 461 kts 27°
2026-05-06 14:49 47.19894 -1.34261 37965 ft 461 kts 27°
2026-05-06 14:50 47.25493 -1.29717 37965 ft 462 kts 27°
2026-05-06 14:50 47.31103 -1.25151 37968 ft 462 kts 27°
2026-05-06 14:51 47.36741 -1.20553 37964 ft 462 kts 27°
2026-05-06 14:51 47.42361 -1.15957 37967 ft 462 kts 27°
2026-05-06 14:52 47.47958 -1.11369 37965 ft 462 kts 28°
2026-05-06 14:52 47.53573 -1.06755 37969 ft 462 kts 28°
2026-05-06 14:53 47.59204 -1.02116 37963 ft 462 kts 28°
2026-05-06 14:53 47.64807 -0.97488 37967 ft 462 kts 28°
2026-05-06 14:54 47.70388 -0.92838 37962 ft 463 kts 31°
2026-05-06 14:54 47.75323 -0.86635 37961 ft 465 kts 49°
2026-05-06 14:55 47.79251 -0.79048 37967 ft 465 kts 52°
2026-05-06 14:55 47.83105 -0.71347 37963 ft 465 kts 52°
2026-05-06 14:56 47.87016 -0.63645 37965 ft 465 kts 52°
2026-05-06 14:56 47.90947 -0.55967 37970 ft 465 kts 52°
2026-05-06 14:57 47.94862 -0.48308 37966 ft 465 kts 52°
2026-05-06 14:57 47.98765 -0.40645 37968 ft 465 kts 52°
2026-05-06 14:58 48.02695 -0.32904 37967 ft 465 kts 52°
2026-05-06 14:58 48.06542 -0.25185 37961 ft 466 kts 56°
2026-05-06 14:59 48.09507 -0.16578 37967 ft 466 kts 65°
2026-05-06 14:59 48.12184 -0.07793 37966 ft 466 kts 65°
2026-05-06 15:00 48.14889 0.01045 37964 ft 466 kts 65°
2026-05-06 15:00 48.17626 0.09876 37967 ft 466 kts 65°
2026-05-06 15:01 48.20352 0.18642 37962 ft 466 kts 65°
2026-05-06 15:01 48.23084 0.27453 37961 ft 466 kts 65°
2026-05-06 15:02 48.25822 0.36322 37953 ft 466 kts 65°
2026-05-06 15:02 48.28530 0.45125 37954 ft 467 kts 65°
2026-05-06 15:03 48.31244 0.53980 37945 ft 467 kts 65°
2026-05-06 15:03 48.33957 0.62866 37949 ft 467 kts 65°
2026-05-06 15:04 48.36657 0.71740 37946 ft 468 kts 65°
2026-05-06 15:04 48.39357 0.80648 37941 ft 468 kts 65°
2026-05-06 15:05 48.42062 0.89601 37943 ft 469 kts 65°
2026-05-06 15:05 48.44744 0.98511 37936 ft 469 kts 65°
2026-05-06 15:06 48.47441 1.07504 37933 ft 470 kts 65°
2026-05-06 15:06 48.50115 1.16453 37931 ft 470 kts 65°
2026-05-06 15:07 48.52799 1.25471 37929 ft 470 kts 66°
2026-05-06 15:07 48.55465 1.34461 37919 ft 471 kts 66°
2026-05-06 15:08 48.58124 1.43456 37918 ft 471 kts 66°
2026-05-06 15:08 48.60795 1.52530 37914 ft 471 kts 66°
2026-05-06 15:09 48.63454 1.61592 37914 ft 471 kts 66°
2026-05-06 15:09 48.65943 1.70720 37905 ft 472 kts 70°
2026-05-06 15:10 48.67887 1.78901 37912 ft 471 kts 71°
2026-05-06 15:10 48.70088 1.88223 37909 ft 472 kts 70°
2026-05-06 15:11 48.72332 1.97573 37909 ft 472 kts 70°
2026-05-06 15:11 48.74568 2.06865 37912 ft 472 kts 70°
2026-05-06 15:12 48.76876 2.16163 37906 ft 472 kts 68°
2026-05-06 15:12 48.79378 2.25363 37913 ft 472 kts 68°
2026-05-06 15:13 48.81886 2.34610 37912 ft 471 kts 68°
2026-05-06 15:13 48.84331 2.43793 37910 ft 471 kts 68°
2026-05-06 15:14 48.86776 2.53058 37913 ft 471 kts 69°
2026-05-06 15:14 48.89194 2.62240 37910 ft 470 kts 69°
2026-05-06 15:15 48.91623 2.71501 37922 ft 471 kts 69°
2026-05-06 15:15 48.94035 2.80736 37909 ft 472 kts 69°
2026-05-06 15:16 48.96441 2.89989 37906 ft 471 kts 69°
2026-05-06 15:16 48.98858 2.99318 37901 ft 471 kts 69°
2026-05-06 15:17 49.01246 3.08573 37898 ft 471 kts 69°
2026-05-06 15:17 49.03630 3.17851 37895 ft 471 kts 69°
2026-05-06 15:18 49.06021 3.27195 37896 ft 471 kts 69°
2026-05-06 15:18 49.08386 3.36477 37891 ft 471 kts 69°
2026-05-06 15:19 49.10756 3.45814 37897 ft 471 kts 70°
2026-05-06 15:19 49.13110 3.55121 37888 ft 471 kts 70°
2026-05-06 15:20 49.15091 3.64658 37895 ft 470 kts 76°
2026-05-06 15:20 49.16678 3.74286 37889 ft 470 kts 77°
2026-05-06 15:21 49.18257 3.84004 37884 ft 470 kts 77°
2026-05-06 15:21 49.19861 3.93662 37884 ft 470 kts 77°
2026-05-06 15:22 49.21483 4.03349 37886 ft 470 kts 77°
2026-05-06 15:22 49.23101 4.13051 37887 ft 470 kts 77°
2026-05-06 15:23 49.24707 4.22742 37518 ft 476 kts 77°
2026-05-06 15:23 49.25518 4.27666 36871 ft 476 kts 77°
2026-05-06 15:23 49.26327 4.32583 36158 ft 473 kts 77°
2026-05-06 15:23 49.27119 4.37418 35401 ft 471 kts 77°
2026-05-06 15:24 49.27914 4.42284 34576 ft 471 kts 77°
2026-05-06 15:24 49.28715 4.47199 33675 ft 471 kts 77°
2026-05-06 15:24 49.29498 4.52019 32795 ft 468 kts 77°
2026-05-06 15:24 49.30282 4.56854 31728 ft 468 kts 77°
2026-05-06 15:25 49.31066 4.61707 30748 ft 467 kts 77°
2026-05-06 15:25 49.31843 4.66532 29911 ft 465 kts 77°
2026-05-06 15:25 49.32609 4.71302 29116 ft 458 kts 77°
2026-05-06 15:25 49.33357 4.75972 28379 ft 451 kts 77°
2026-05-06 15:26 49.34098 4.80608 27685 ft 443 kts 77°
2026-05-06 15:26 49.34822 4.85157 26995 ft 436 kts 77°
2026-05-06 15:26 49.35542 4.89691 26303 ft 431 kts 77°
2026-05-06 15:26 49.36239 4.94090 25616 ft 426 kts 77°
2026-05-06 15:27 49.36939 4.98522 24921 ft 422 kts 77°
2026-05-06 15:27 49.37623 5.02863 24595 ft 413 kts 77°
2026-05-06 15:27 49.38295 5.07134 24366 ft 420 kts 77°
2026-05-06 15:27 49.39000 5.11543 24112 ft 429 kts 75°
2026-05-06 15:28 49.40200 5.15716 23512 ft 427 kts 59°
2026-05-06 15:28 49.41708 5.19547 22883 ft 420 kts 59°
2026-05-06 15:28 49.43199 5.23379 22192 ft 414 kts 59°
2026-05-06 15:28 49.44640 5.27153 21475 ft 409 kts 59°
2026-05-06 15:29 49.46062 5.30937 20773 ft 405 kts 60°
2026-05-06 15:29 49.47462 5.34692 20064 ft 402 kts 60°
2026-05-06 15:29 49.48830 5.38368 19704 ft 390 kts 60°
2026-05-06 15:29 49.50061 5.41999 19442 ft 377 kts 71°
2026-05-06 15:30 49.50501 5.45873 19288 ft 361 kts 91°
2026-05-06 15:30 49.50102 5.49583 19133 ft 346 kts 110°
2026-05-06 15:30 49.49012 5.52840 18804 ft 337 kts 128°
2026-05-06 15:30 49.47445 5.55397 18488 ft 330 kts 135°
2026-05-06 15:31 49.46547 5.57332 18294 ft 330 kts 116°
2026-05-06 15:31 49.46095 5.60718 18047 ft 329 kts 87°
2026-05-06 15:31 49.47069 5.65094 17723 ft 327 kts 58°
2026-05-06 15:32 49.49214 5.70000 17300 ft 332 kts 55°
2026-05-06 15:32 49.50505 5.72895 16997 ft 331 kts 55°
2026-05-06 15:32 49.51797 5.75811 16496 ft 325 kts 55°
2026-05-06 15:32 49.53052 5.78665 16015 ft 322 kts 55°
2026-05-06 15:33 49.54311 5.81550 15504 ft 321 kts 56°
2026-05-06 15:33 49.55536 5.84373 14984 ft 320 kts 56°
2026-05-06 15:33 49.56770 5.87225 14483 ft 316 kts 56°
2026-05-06 15:33 49.57974 5.90017 14005 ft 313 kts 56°
2026-05-06 15:34 49.59182 5.92821 13532 ft 311 kts 56°
2026-05-06 15:34 49.60376 5.95597 12991 ft 307 kts 56°
2026-05-06 15:34 49.61536 5.98299 12346 ft 305 kts 56°
2026-05-06 15:34 49.62694 6.01000 11826 ft 300 kts 56°
2026-05-06 15:35 49.63825 6.03638 11433 ft 292 kts 56°
2026-05-06 15:35 49.64953 6.06273 11077 ft 292 kts 56°
2026-05-06 15:35 49.66061 6.08863 10793 ft 288 kts 56°
2026-05-06 15:35 49.67162 6.11441 10433 ft 288 kts 56°
2026-05-06 15:36 49.68258 6.14010 10107 ft 286 kts 56°
2026-05-06 15:36 49.69351 6.16573 9796 ft 284 kts 56°
2026-05-06 15:36 49.70435 6.19118 9431 ft 283 kts 56°
2026-05-06 15:36 49.71527 6.21685 9065 ft 282 kts 56°
2026-05-06 15:37 49.72597 6.24201 8723 ft 281 kts 56°
2026-05-06 15:37 49.73653 6.26686 8394 ft 279 kts 56°
2026-05-06 15:37 49.74717 6.29193 8039 ft 278 kts 56°
2026-05-06 15:37 49.75786 6.31714 7526 ft 283 kts 56°
2026-05-06 15:38 49.76780 6.34359 7016 ft 287 kts 70°
2026-05-06 15:38 49.77013 6.37451 6552 ft 291 kts 98°
2026-05-06 15:38 49.76261 6.40309 6054 ft 290 kts 129°
2026-05-06 15:38 49.74686 6.42118 5525 ft 283 kts 162°
2026-05-06 15:39 49.72759 6.42378 4985 ft 275 kts 193°
2026-05-06 15:39 49.71073 6.41188 4559 ft 264 kts 218°
2026-05-06 15:39 49.69722 6.39356 4161 ft 254 kts 229°
2026-05-06 15:39 49.68649 6.37225 3775 ft 246 kts 238°
2026-05-06 15:40 49.67788 6.35032 3416 ft 234 kts 242°
2026-05-06 15:40 49.67002 6.32880 3035 ft 223 kts 243°
2026-05-06 15:40 49.66275 6.30922 2997 ft 202 kts 243°
2026-05-06 15:40 49.65592 6.29097 2635 ft 198 kts 243°
2026-05-06 15:41 49.64889 6.27285 2391 ft 190 kts 241°